#timestamp,LO_Frequency,Hit,StdDev 
1600355915.4,286047029.4,P
1600355935.2,286047027.8,P
1600355955.0,286047027.4,P
1600355956.0,286047027.4,Y
1600355975.8,286046998.2,P
1600355995.6,286047000.4,N
1600356015.5,286047000.6,N
1600356035.3,286047002.8,N
1600356055.1,286047000.2,N
1600356075.9,286047001.4,N
1600356095.7,286047004.3,N
1600356115.6,286047001.6,N
1600356135.4,286047001.6,N
1600356155.2,286047004.2,N
1600356175.1,286047004.2,N
1600356176.0,286047004.2,N
1600356195.8,286047004.1,N
1600356215.6,286047005.8,N
1600356235.5,286047005.0,N
1600356255.3,286047007.3,N
1600356275.2,286047007.1,N
1600356295.9,286047007.4,N
1600356315.7,286047009.0,N
1600356335.6,286047006.2,N
1600356355.4,286047007.1,N
1600356375.3,286047006.6,N
1600356395.1,286047008.9,N
1600356396.0,286047008.9,N
1600356415.8,286047006.1,N
1600356435.7,286047007.8,N
1600356455.5,286047010.8,N
1600356475.3,286047010.0,N
1600356495.2,286047009.8,N
1600356515.0,286047009.4,N
1600356515.9,286047009.4,N
1600356535.8,286047009.9,Y
1600356555.6,286047003.3,P
1600356575.4,286047005.6,P
1600356595.3,286047006.0,P
1600356615.1,286047005.0,Y
1600356635.9,286047002.5,P
1600356655.7,286047004.2,P
1600356675.5,286047001.3,N
1600356695.4,286047001.5,N
1600356715.2,286047003.7,N
1600356735.1,286047003.8,N
1600356736.0,286047003.8,N
1600356755.8,286047003.5,N
1600356775.6,286047003.5,N
1600356795.5,286047005.1,Y
1600356815.3,286047001.9,P
1600356835.2,286047001.5,N
1600356855.9,286047001.5,N
1600356875.7,286047002.4,Y
1600356895.6,286047000.1,P
1600356915.4,286047002.1,N
1600356935.2,286047001.8,N
1600356955.1,286047001.4,N
1600356956.0,286047001.4,N
1600356975.8,286047003.7,Y
1600356995.7,286046999.9,P
1600357015.5,286046999.7,N
1600357035.3,286046999.7,N
1600357055.2,286047004.3,Y
1600357075.0,286047002.5,P
1600357075.9,286047002.5,N
1600357095.8,286047002.2,N
1600357115.6,286047002.0,N
1600357135.4,286047001.7,N
1600357155.3,286047003.7,Y
1600357175.1,286047002.7,P
1600357195.9,286047000.0,N
1600357215.7,286047001.7,N
1600357235.5,286047003.7,Y
1600357255.4,286047001.8,P
1600357275.2,286047003.5,P
1600357295.0,286047003.3,P
1600357296.0,286047003.3,Y
1600357315.8,286047001.6,P
1600357335.6,286047003.7,P
1600357355.5,286047001.7,N
1600357375.3,286047002.9,Y
1600357395.1,286046999.7,P
1600357415.9,286047002.1,N
1600357435.7,286047004.3,P
1600357455.6,286047004.4,N
1600357475.4,286047001.3,N
1600357495.2,286047003.2,N
1600357515.1,286047003.1,N
1600357516.0,286047003.1,N
1600357535.8,286047002.9,N
1600357555.7,286047006.0,Y
1600357575.5,286047004.3,P
1600357595.3,286047001.3,N
1600357615.2,286047003.5,N
1600357635.0,286047001.8,N
1600357635.9,286047001.8,N
1600357655.8,286047004.1,Y
1600357675.6,286047002.8,P
1600357695.4,286047002.6,P
1600357715.3,286046999.7,P
1600357735.1,286047002.5,N
1600357755.9,286046999.7,N
1600357775.7,286047002.0,N
1600357795.5,286047003.8,N
1600357815.4,286047003.7,N
1600357835.2,286047003.1,N
1600357855.0,286047003.3,N
1600357855.9,286047003.3,N
1600357875.8,286047005.7,Y
1600357895.6,286047001.4,P
1600357915.5,286047004.1,P
1600357935.3,286047005.9,P
1600357955.1,286047005.7,Y
1600357975.9,286046999.7,P
1600357995.7,286046999.7,N
1600358015.6,286047000.3,N
1600358035.4,286047001.5,N
1600358055.2,286047004.4,Y
1600358075.1,286047002.5,P
1600358076.0,286047002.5,P
1600358095.8,286047002.1,N
1600358115.7,286047002.1,Y
1600358135.5,286047000.6,P
1600358155.3,286047002.3,P
1600358175.2,286047002.8,P
1600358195.9,286047001.6,N
1600358215.7,286047001.8,N
1600358235.6,286047002.0,N
1600358255.4,286047001.7,N
1600358275.3,286047003.3,Y
1600358295.1,286047003.8,P
1600358296.0,286047003.8,P
1600358315.8,286047005.8,P
1600358335.7,286047006.0,Y
1600358355.5,286047000.4,P
1600358375.3,286047000.2,N
1600358395.2,286047002.2,N
